Weather History for Sanford, NC

Change the Weather History Date:

Monday, January 23, 2012

  Actual Average (KRDU) Record (KRDU)
Temperature  
Mean Temperature 44 °F 41 °F  
Max Temperature 50 °F 51 °F 77 °F (1999)
Min Temperature 37 °F 31 °F 8 °F (1977)
Degree Days  
Heating Degree Days 22 24  
Month to date heating degree days 558  
Since 1 July heating degree days 1809  
Cooling Degree Days 0 0  
Month to date cooling degree days 0  
Year to date cooling degree days 0  
Moisture  
Dew Point 41 °F    
Average Humidity 97    
Maximum Humidity 100    
Minimum Humidity 93    
Precipitation  
Precipitation 0.00 in 0.12 in 1.57 in (1896)
Month to date precipitation 2.61  
Year to date precipitation 2.61  
Snow  
Snow 0.00 in 0.10 in 4.10 in (1954)
Month to date snowfall 2.1  
Since 1 July snowfall 2.8  
Snow Depth -    
Sea Level Pressure  
Sea Level Pressure 30.15 in    
Wind  
Wind Speed 1 mph (NW)    
Max Wind Speed 6 mph    
Max Gust Speed -    
Visibility 4 miles    
Events      
T = Trace of Precipitation, MM = Missing Value Source: NWS Daily Summary

Daily Weather History Graph

Daily Weather History Graph

Search for Another Location

Airport:

Trip Planner

Search our weather history database for the weather conditions in past years. The results will help you decide how hot, cold, wet, or windy it might be!

Date:

Astronomy

Jan. 23, 2012 Rise Set
Actual Time 7:22 AM EST 5:34 PM EST
Civil Twilight 6:55 AM EST 6:01 PM EST
Nautical Twilight 6:24 AM EST 6:32 PM EST
Astronomical Twilight 5:53 AM EST 7:02 PM EST
Moon 7:18 AM EST (1/23) 6:17 PM EST (1/23)
Length of Visible Light 11h 06m
Length of Day
10h 11m
New Moon, 0% of the Moon is Illuminated
Jan 23
New Moon
Jan 30
First Quarter
Feb 7
Full
Feb 14
Last Quarter
Feb 21
New

Hourly Weather History & Observations

Time (EST) Temp. Windchill Dew Point Humidity Pressure Visibility Wind Dir Wind Speed Gust Speed Precip Events Conditions
12:15 AM 37.4 °F - 35.6 °F 93% 30.31 in 10.0 mi Calm Calm - N/A   Overcast
12:35 AM 37.4 °F - 35.6 °F 93% 30.31 in 10.0 mi Calm Calm - N/A   Overcast
12:55 AM 37.4 °F - 35.6 °F 93% 30.31 in 10.0 mi Calm Calm - N/A   Overcast
1:15 AM 37.4 °F - 35.6 °F 93% 30.30 in 7.0 mi Calm Calm - N/A   Overcast
1:35 AM 37.4 °F 32.8 °F 35.6 °F 93% 30.30 in 7.0 mi NNE 5.8 mph - N/A   Overcast
1:55 AM 37.4 °F - 35.6 °F 93% 30.29 in 7.0 mi Calm Calm - N/A   Overcast
2:15 AM 37.4 °F 34.9 °F 35.6 °F 93% 30.30 in 7.0 mi NNW 3.5 mph - N/A   Overcast
2:35 AM 37.4 °F 32.8 °F 35.6 °F 93% 30.29 in 7.0 mi North 5.8 mph - N/A   Overcast
2:55 AM 37.4 °F 34.9 °F 35.6 °F 93% 30.29 in 5.0 mi NNW 3.5 mph - N/A   Overcast
3:15 AM 37.4 °F - 35.6 °F 93% 30.27 in 5.0 mi Calm Calm - N/A   Overcast
3:35 AM 37.4 °F - 35.6 °F 93% 30.26 in 5.0 mi Calm Calm - N/A   Overcast
3:55 AM 37.4 °F - 37.4 °F 100% 30.25 in 5.0 mi Calm Calm - N/A   Overcast
4:15 AM 37.4 °F 33.8 °F 37.4 °F 100% 30.23 in 5.0 mi NNE 4.6 mph - N/A   Overcast
4:55 AM 37.4 °F 34.9 °F 35.6 °F 93% 30.21 in 7.0 mi NE 3.5 mph - N/A   Overcast
5:15 AM 37.4 °F - 35.6 °F 93% 30.20 in 5.0 mi Calm Calm - N/A   Overcast
5:35 AM 37.4 °F - 35.6 °F 93% 30.21 in 5.0 mi Calm Calm - N/A   Overcast
5:55 AM 37.4 °F - 37.4 °F 100% 30.19 in 5.0 mi Calm Calm - N/A   Overcast
6:15 AM 37.4 °F - 37.4 °F 100% 30.20 in 4.0 mi Calm Calm - N/A   Overcast
6:35 AM 37.4 °F 33.8 °F 37.4 °F 100% 30.23 in 5.0 mi WNW 4.6 mph - N/A   Overcast
6:55 AM 37.4 °F - 37.4 °F 100% 30.23 in 5.0 mi Calm Calm - N/A   Overcast
7:15 AM 37.4 °F 33.8 °F 37.4 °F 100% 30.19 in 4.0 mi NNE 4.6 mph - N/A   Overcast
7:35 AM 37.4 °F - 37.4 °F 100% 30.20 in 4.0 mi Calm Calm - N/A   Overcast
7:55 AM 37.4 °F - 37.4 °F 100% 30.19 in 3.0 mi Calm Calm - N/A   Overcast
8:15 AM 37.4 °F - 37.4 °F 100% 30.20 in 2.5 mi Calm Calm - N/A   Overcast
8:35 AM 37.4 °F - 37.4 °F 100% 30.18 in 1.8 mi Calm Calm - N/A   Drizzle
8:55 AM 37.4 °F - 37.4 °F 100% 30.18 in 1.2 mi Calm Calm - N/A   Overcast
9:15 AM 37.4 °F - 37.4 °F 100% 30.18 in 1.5 mi Calm Calm - N/A   Overcast
9:35 AM 37.4 °F - 37.4 °F 100% 30.19 in 1.8 mi Calm Calm - N/A   Overcast
9:55 AM 39.2 °F - 39.2 °F 100% 30.20 in 1.5 mi Calm Calm - N/A   Overcast
10:15 AM 39.2 °F 35.9 °F 39.2 °F 100% 30.22 in 1.5 mi West 4.6 mph - N/A   Overcast
10:35 AM 39.2 °F - 39.2 °F 100% 30.20 in 1.8 mi Calm Calm - N/A   Light Drizzle
10:55 AM 39.2 °F - 39.2 °F 100% 30.18 in 1.5 mi Calm Calm - N/A   Overcast
11:15 AM 41.0 °F - 41.0 °F 100% 30.17 in 1.2 mi Calm Calm - N/A   Overcast
11:35 AM 41.0 °F - 41.0 °F 100% 30.16 in 1.5 mi Calm Calm - N/A   Overcast
11:55 AM 41.0 °F - 41.0 °F 100% 30.14 in 1.8 mi Calm Calm - N/A   Overcast
12:15 PM 41.0 °F - 41.0 °F 100% 30.13 in 2.0 mi Calm Calm - N/A   Overcast
12:55 PM 42.8 °F - 42.8 °F 100% 30.12 in 3.0 mi Calm Calm - N/A   Overcast
1:15 PM 44.6 °F 43.1 °F 42.8 °F 93% 30.12 in 4.0 mi West 3.5 mph - N/A   Overcast
1:35 PM 44.6 °F - 42.8 °F 93% 30.11 in 4.0 mi Calm Calm - N/A   Overcast
1:55 PM 44.6 °F - 42.8 °F 93% 30.10 in 3.0 mi Calm Calm - N/A   Overcast
2:15 PM 44.6 °F - 42.8 °F 93% 30.09 in 2.5 mi Calm Calm - N/A   Overcast
2:35 PM 44.6 °F - 42.8 °F 93% 30.09 in 2.5 mi Calm Calm - N/A   Overcast
2:55 PM 44.6 °F - 44.6 °F 100% 30.07 in 2.5 mi Calm Calm - N/A   Overcast
3:15 PM 44.6 °F - 44.6 °F 100% 30.06 in 3.0 mi Calm Calm - N/A   Overcast
3:35 PM 46.4 °F 45.2 °F 44.6 °F 93% 30.04 in 4.0 mi SE 3.5 mph - N/A   Overcast
3:55 PM 46.4 °F 45.2 °F 46.4 °F 100% 30.03 in 2.5 mi SSE 3.5 mph - N/A   Overcast
4:15 PM 48.2 °F - 46.4 °F 93% 30.04 in 2.5 mi Calm Calm - N/A   Overcast
4:35 PM 48.2 °F - 48.2 °F 100% 30.04 in 2.5 mi Calm Calm - N/A   Overcast
4:55 PM 50.0 °F - 48.2 °F 94% 30.04 in 2.5 mi South 3.5 mph - N/A   Overcast
5:15 PM 50.0 °F - 48.2 °F 94% 30.03 in 2.5 mi Calm Calm - N/A   Overcast
5:35 PM 50.0 °F - 50.0 °F 100% 30.03 in 2.0 mi Calm Calm - N/A   Overcast
5:55 PM 50.0 °F - 50.0 °F 100% 30.04 in 2.5 mi Calm Calm - N/A   Overcast
6:15 PM 50.0 °F - 50.0 °F 100% 30.04 in 1.5 mi Calm Calm - N/A   Overcast
6:35 PM 48.2 °F - 48.2 °F 100% 30.04 in 1.0 mi Calm Calm - N/A   Overcast
6:55 PM 46.4 °F - 46.4 °F 100% 30.04 in 1.0 mi Calm Calm - N/A   Overcast
7:15 PM 46.4 °F - 46.4 °F 100% 30.04 in 1.2 mi Calm Calm - N/A   Overcast
7:35 PM 46.4 °F - 46.4 °F 100% 30.04 in 1.8 mi Calm Calm - N/A   Overcast
7:55 PM 46.4 °F - 46.4 °F 100% 30.04 in 2.0 mi Calm Calm - N/A   Overcast
8:15 PM 46.4 °F 45.2 °F 46.4 °F 100% 30.04 in 2.0 mi WNW 3.5 mph - N/A   Overcast
8:35 PM 46.4 °F - 46.4 °F 100% 30.04 in 2.0 mi Calm Calm - N/A   Overcast
8:55 PM 46.4 °F 45.2 °F 46.4 °F 100% 30.05 in 1.8 mi WSW 3.5 mph - N/A   Overcast
9:15 PM 46.4 °F - 46.4 °F 100% 30.05 in 2.0 mi Calm Calm - N/A   Overcast
9:35 PM 48.2 °F - 48.2 °F 100% 30.06 in 1.5 mi WSW 3.5 mph - N/A   Overcast
9:55 PM 46.4 °F 45.2 °F 46.4 °F 100% 30.05 in 1.8 mi SSW 3.5 mph - N/A   Overcast
10:15 PM 46.4 °F - 46.4 °F 100% 30.05 in 1.8 mi Calm Calm - N/A   Light Drizzle
10:35 PM 46.4 °F - 46.4 °F 100% 30.05 in 1.5 mi Calm Calm - N/A   Overcast
10:55 PM 46.4 °F - 46.4 °F 100% 30.05 in 1.5 mi Calm Calm - N/A   Overcast
11:15 PM 46.4 °F - 46.4 °F 100% 30.05 in 1.8 mi Calm Calm - N/A   Overcast
11:35 PM 48.2 °F - 48.2 °F 100% 30.05 in 1.8 mi Calm Calm - N/A   Overcast
11:55 PM 48.2 °F - 48.2 °F 100% 30.04 in 1.5 mi Calm Calm - N/A   Overcast